Date,TemperatureHighF,TemperatureAvgF,TemperatureLowF,DewpointHighF,DewpointAvgF,DewpointLowF,HumidityHigh,HumidityAvg,HumidityLow,PressureMaxIn,PressureMinIn,WindSpeedMaxMPH,WindSpeedAvgMPH,GustSpeedMaxMPH,PrecipitationSumIn
2013-9-1,82.7,71.9,66.3,74.5,68.7,65.4,99,91,67,29.83,29.74,13,0,15,0.18
2013-9-2,83.2,73.3,68.4,73.6,69.7,66.7,98,89,71,29.86,29.75,10,0,10,0.00
2013-9-3,81.8,70.1,62.9,72.9,65.9,61.0,99,88,59,29.95,29.76,12,0,13,0.78
2013-9-4,83.8,68.7,57.7,68.5,62.2,57.0,99,82,49,30.06,29.94,6,0,6,0.01
2013-9-5,83.2,68.3,56.8,68.1,61.9,55.9,100,82,54,30.10,30.03,4,0,5,0.00
2013-9-6,85.8,70.0,56.9,69.1,62.6,56.1,99,80,50,30.12,29.99,5,0,6,0.00
2013-9-7,83.5,69.5,58.3,68.8,63.7,57.5,99,83,56,30.04,29.92,9,0,9,0.00
2013-9-8,85.1,71.5,62.4,72.4,66.1,61.5,99,85,53,29.94,29.88,6,0,7,0.00
2013-9-9,89.4,74.1,62.7,73.7,67.2,62.0,99,81,50,30.05,29.94,7,0,10,0.00
2013-9-10,90.3,73.0,64.5,74.6,67.3,63.2,98,84,53,30.15,30.03,2,0,5,4.04
2013-9-11,87.4,75.4,67.7,74.0,69.6,66.2,98,83,58,30.14,30.00,9,0,10,0.00
2013-9-12,82.3,71.4,64.8,73.8,68.5,63.4,99,91,74,30.01,29.80,16,0,16,0.52
2013-9-13,75.3,66.9,55.5,65.3,59.3,50.9,99,79,45,29.92,29.79,7,0,9,0.01
2013-9-14,76.2,60.3,47.1,56.3,50.8,45.4,96,74,40,30.05,29.91,6,0,6,0.00
2013-9-15,80.6,64.3,50.7,63.3,56.9,49.7,99,79,48,30.13,30.03,9,0,11,4.09
2013-9-16,75.3,65.9,57.7,66.4,61.5,56.6,98,86,69,30.13,30.05,7,0,7,8.18
2013-9-17,78.2,64.8,54.9,63.8,58.0,52.8,94,80,57,30.18,30.09,6,0,8,0.00
2013-9-18,67.2,61.0,55.2,62.0,58.1,53.0,98,91,75,30.16,30.09,2,0,2,0.19
2013-9-19,79.0,67.0,62.1,69.1,64.1,61.5,99,91,70,30.12,29.99,7,0,7,0.01
2013-9-20,82.5,69.5,60.0,69.6,64.6,59.2,99,86,61,30.01,29.82,6,0,7,0.00
2013-9-21,67.3,64.2,60.8,66.0,63.0,59.8,100,96,93,29.82,29.65,4,0,4,0.75
2013-9-22,74.0,61.4,52.6,61.1,56.0,51.2,99,84,52,29.89,29.74,5,0,6,0.01
2013-9-23,77.3,61.5,49.9,64.0,55.7,49.1,100,83,56,29.98,29.89,7,0,7,0.00
2013-9-24,80.3,64.0,52.6,64.3,58.1,51.7,99,83,52,30.00,29.82,0,0,0,0.01
2013-9-25,67.8,63.0,59.8,66.2,61.4,58.5,97,94,90,29.83,29.76,0,0,0,0.17
2013-9-26,77.8,65.4,58.2,64.4,60.2,55.3,98,85,56,29.98,29.81,0,0,0,0.02
2013-9-27,80.2,63.8,53.1,63.6,56.8,51.8,98,80,47,30.09,29.98,0,0,0,0.00
2013-9-28,76.3,62.3,52.1,62.2,56.5,50.9,98,83,56,30.17,30.05,0,0,0,0.00
2013-9-29,72.2,60.0,53.0,61.8,56.2,51.3,97,88,67,30.08,29.95,9,0,9,0.00
2013-9-30,76.4,64.0,56.7,64.3,59.2,55.3,98,85,61,30.02,29.92,6,0,6,0.00